"Period start","avg(HW err(1)/warn(2) (#))","avg(Visibility (m))","avg(Weather code (#))","avg(Precip intensity (mm/h))","min(HW err(1)/warn(2) (#))","max(HW err(1)/warn(2) (#))","std(HW err(1)/warn(2) (#))","med(HW err(1)/warn(2) (#))","min(Visibility (m))","max(Visibility (m))","std(Visibility (m))","med(Visibility (m))","min(Weather code (#))","max(Weather code (#))","std(Weather code (#))","med(Weather code (#))","min(Precip intensity (mm/h))","max(Precip intensity (mm/h))","std(Precip intensity (mm/h))","med(Precip intensity (mm/h))"
2013-07-31 00:00:00,2,49683,0,0.00,2,2,0,2,46826,50000,952,50000,0,0,0,0,0.00,0.00,0.00,0.00
2013-07-31 00:10:00,2,49734,0,0.00,2,2,0,2,47343,50000,797,50000,0,0,0,0,0.00,0.00,0.00,0.00
2013-07-31 00:20:00,2,48055,0,0.00,2,2,0,2,41193,50000,3164,50000,0,0,0,0,0.00,0.00,0.00,0.00
2013-07-31 00:30:00,2,48709,0,0.00,2,2,0,2,42919,50000,2597,50000,0,0,0,0,0.00,0.00,0.00,0.00
2013-07-31 00:40:00,2,49783,0,0.00,2,2,0,2,48172,50000,547,50000,0,0,0,0,0.00,0.00,0.00,0.00
2013-07-31 00:50:00,2,49495,0,0.00,2,2,0,2,45972,50000,1213,50000,0,0,0,0,0.00,0.00,0.00,0.00
2013-07-31 01:00:00,2,49944,0,0.00,2,2,0,2,49438,50000,169,50000,0,0,0,0,0.00,0.00,0.00,0.00
2013-07-31 01:10:00,2,47441,0,0.00,2,2,0,2,42308,50000,3188,49539,0,0,0,0,0.00,0.00,0.00,0.00
2013-07-31 01:20:00,2,48980,0,0.00,2,2,0,2,46044,50000,1454,49900,0,0,0,0,0.00,0.00,0.00,0.00
2013-07-31 01:30:00,2,49117,0,0.00,2,2,0,2,45907,50000,1441,50000,0,0,0,0,0.00,0.00,0.00,0.00
2013-07-31 01:40:00,2,49541,0,0.00,2,2,0,2,48034,50000,714,50000,0,0,0,0,0.00,0.00,0.00,0.00
2013-07-31 01:50:00,2,49981,0,0.00,2,2,0,2,49806,50000,58,50000,0,0,0,0,0.00,0.00,0.00,0.00
2013-07-31 02:00:00,2,49683,0,0.00,2,2,0,2,48041,50000,656,50000,0,0,0,0,0.00,0.00,0.00,0.00
2013-07-31 02:10:00,2,49629,0,0.00,2,2,0,2,47724,50000,696,50000,0,0,0,0,0.00,0.00,0.00,0.00
2013-07-31 02:20:00,2,48715,0,0.00,2,2,0,2,41230,50000,2632,50000,0,0,0,0,0.00,0.00,0.00,0.00
2013-07-31 02:30:00,2,48680,0,0.00,2,2,0,2,44112,50000,1880,50000,0,0,0,0,0.00,0.00,0.00,0.00
2013-07-31 02:40:00,2,49334,0,0.00,2,2,0,2,47063,50000,1060,50000,0,0,0,0,0.00,0.00,0.00,0.00
2013-07-31 02:50:00,2,46934,0,0.00,2,2,0,2,38861,50000,3603,48512,0,0,0,0,0.00,0.00,0.00,0.00
2013-07-31 03:00:00,2,38022,0,0.00,2,2,0,2,30183,44138,4582,39008,0,0,0,0,0.00,0.00,0.00,0.00
2013-07-31 03:10:00,2,46918,0,0.00,2,2,0,2,40959,50000,3330,47678,0,0,0,0,0.00,0.00,0.00,0.00
2013-07-31 03:20:00,2,45922,0,0.00,2,2,0,2,37957,50000,3604,45653,0,0,0,0,0.00,0.00,0.00,0.00
2013-07-31 03:30:00,2,46098,0,0.00,2,2,0,2,40636,50000,3264,46087,0,0,0,0,0.00,0.00,0.00,0.00
2013-07-31 03:40:00,2,43476,0,0.00,2,2,0,2,35380,50000,5248,43162,0,0,0,0,0.00,0.00,0.00,0.00
2013-07-31 03:50:00,2,45645,0,0.00,2,2,0,2,37487,50000,3577,45806,0,0,0,0,0.00,0.00,0.00,0.00
2013-07-31 04:00:00,2,43367,0,0.00,2,2,0,2,34938,50000,5574,42670,0,0,0,0,0.00,0.00,0.00,0.00
2013-07-31 04:10:00,2,47864,0,0.00,2,2,0,2,42461,50000,3008,50000,0,0,0,0,0.00,0.00,0.00,0.00
2013-07-31 04:20:00,2,48678,0,0.00,2,2,0,2,42658,50000,2359,50000,0,0,0,0,0.00,0.00,0.00,0.00
2013-07-31 04:30:00,2,46251,0,0.00,2,2,0,2,40652,50000,3150,46572,0,0,0,0,0.00,0.00,0.00,0.00
2013-07-31 04:40:00,2,49044,0,0.00,2,2,0,2,45300,50000,1590,50000,0,0,0,0,0.00,0.00,0.00,0.00
2013-07-31 04:50:00,2,47645,0,0.00,2,2,0,2,40560,50000,3228,49618,0,0,0,0,0.00,0.00,0.00,0.00
2013-07-31 05:00:00,2,44414,0,0.00,2,2,0,2,34497,50000,4662,45022,0,0,0,0,0.00,0.00,0.00,0.00
2013-07-31 05:10:00,2,46953,0,0.00,2,2,0,2,37475,50000,4284,49564,0,0,0,0,0.00,0.00,0.00,0.00
2013-07-31 05:20:00,2,49580,0,0.00,2,2,0,2,47099,50000,859,50000,0,0,0,0,0.00,0.00,0.00,0.00
2013-07-31 05:30:00,2,44002,0,0.00,2,2,0,2,34488,50000,6054,45270,0,0,0,0,0.00,0.00,0.00,0.00
2013-07-31 05:40:00,2,48597,0,0.00,2,2,0,2,41272,50000,2601,49922,0,0,0,0,0.00,0.00,0.00,0.00
2013-07-31 05:50:00,2,47287,0,0.00,2,2,0,2,39108,50000,3885,49780,0,0,0,0,0.00,0.00,0.00,0.00
2013-07-31 06:00:00,2,49202,0,0.00,2,2,0,2,44466,50000,1623,49897,0,0,0,0,0.00,0.00,0.00,0.00
2013-07-31 06:10:00,2,49929,0,0.00,2,2,0,2,49286,50000,214,50000,0,0,0,0,0.00,0.00,0.00,0.00
2013-07-31 06:20:00,2,47946,0,0.00,2,2,0,2,42625,50000,2924,49900,0,0,0,0,0.00,0.00,0.00,0.00
2013-07-31 06:30:00,2,46831,0,0.00,2,2,0,2,41452,50000,3241,47937,0,0,0,0,0.00,0.00,0.00,0.00
2013-07-31 06:40:00,2,47122,0,0.00,2,2,0,2,41949,50000,3045,48194,0,0,0,0,0.00,0.00,0.00,0.00
2013-07-31 06:50:00,2,48432,0,0.00,2,2,0,2,40897,50000,2743,49762,0,0,0,0,0.00,0.00,0.00,0.00
2013-07-31 07:00:00,2,48426,0,0.00,2,2,0,2,43040,50000,2490,49818,0,0,0,0,0.00,0.00,0.00,0.00
2013-07-31 07:10:00,2,49846,0,0.00,2,2,0,2,48572,50000,426,50000,0,0,0,0,0.00,0.00,0.00,0.00
2013-07-31 07:20:00,2,47098,0,0.00,2,2,0,2,41524,50000,3259,48138,0,0,0,0,0.00,0.00,0.00,0.00
2013-07-31 07:30:00,2,49459,0,0.00,2,2,0,2,44934,50000,1512,50000,0,0,0,0,0.00,0.00,0.00,0.00
2013-07-31 07:40:00,2,49910,0,0.00,2,2,0,2,49098,50000,271,50000,0,0,0,0,0.00,0.00,0.00,0.00
2013-07-31 07:50:00,2,49977,0,0.00,2,2,0,2,49774,50000,68,50000,0,0,0,0,0.00,0.00,0.00,0.00
2013-07-31 08:00:00,2,50000,0,0.00,2,2,0,2,50000,50000,0,50000,0,0,0,0,0.00,0.00,0.00,0.00
2013-07-31 08:10:00,2,49138,0,0.00,2,2,0,2,46333,50000,1442,50000,0,0,0,0,0.00,0.00,0.00,0.00
2013-07-31 08:20:00,2,49973,0,0.00,2,2,0,2,49734,50000,80,50000,0,0,0,0,0.00,0.00,0.00,0.00
2013-07-31 08:30:00,2,48786,0,0.00,2,2,0,2,40870,50000,2787,50000,0,0,0,0,0.00,0.00,0.00,0.00
2013-07-31 08:40:00,2,34302,0,0.00,2,2,0,2,8615,50000,13443,36796,0,0,0,0,0.00,0.00,0.00,0.00
2013-07-31 08:50:00,2,15488,0,0.00,2,2,0,2,7989,34673,8133,12230,0,0,0,0,0.00,0.00,0.00,0.00
2013-07-31 09:00:00,2,33520,0,0.00,2,2,0,2,10282,50000,16462,38688,0,0,0,0,0.00,0.00,0.00,0.00
2013-07-31 09:10:00,2,46805,0,0.00,2,2,0,2,24883,50000,7586,50000,0,0,0,0,0.00,0.00,0.00,0.00
2013-07-31 09:20:00,2,11624,0,0.00,2,2,0,2,6144,19582,4862,10530,0,0,0,0,0.00,0.00,0.00,0.00
2013-07-31 09:30:00,2,4838,33,0.62,2,2,0,2,2343,11141,2547,3987,0,61,24,41,0.00,2.10,0.64,0.70
2013-07-31 09:40:00,2,4767,49,0.27,2,2,0,2,3515,6476,937,4474,41,61,9,46,0.00,1.00,0.30,0.12
2013-07-31 09:50:00,2,9972,22,0.00,2,2,0,2,5508,24911,5346,7716,10,41,15,10,0.00,0.00,0.00,0.00
2013-07-31 10:00:00,2,8238,10,0.00,2,2,0,2,5426,12990,2815,6665,10,10,0,10,0.00,0.00,0.00,0.00
2013-07-31 10:10:00,2,19105,7,0.00,2,2,0,2,8758,43929,10848,15424,0,10,5,10,0.00,0.00,0.00,0.00
2013-07-31 10:20:00,2,39317,0,0.00,2,2,0,2,9919,50000,15498,49666,0,0,0,0,0.00,0.00,0.00,0.00
2013-07-31 10:30:00,2,14665,0,0.00,2,2,0,2,7982,35929,8550,10780,0,0,0,0,0.00,0.00,0.00,0.00
2013-07-31 10:40:00,2,14077,0,0.00,2,2,0,2,4142,32919,7530,12663,0,0,0,0,0.00,0.00,0.00,0.00
2013-07-31 10:50:00,2,5900,9,0.00,2,2,0,2,5088,6568,505,5922,0,10,3,10,0.00,0.00,0.00,0.00
2013-07-31 11:00:00,2,9454,10,0.00,2,2,0,2,7776,14509,2030,8576,10,10,0,10,0.00,0.00,0.00,0.00
2013-07-31 11:10:00,2,10799,19,0.11,2,2,0,2,4866,16393,4165,10900,10,40,14,10,0.00,0.75,0.23,0.00
2013-07-31 11:20:00,2,10030,26,0.03,2,2,0,2,6555,14095,2043,9613,10,51,20,10,0.00,0.15,0.05,0.00
2013-07-31 11:30:00,2,12843,5,0.00,2,2,0,2,10577,16455,1834,12790,0,10,5,5,0.00,0.00,0.00,0.00
2013-07-31 11:40:00,2,40394,0,0.00,2,2,0,2,17334,50000,12773,49427,0,0,0,0,0.00,0.00,0.00,0.00
2013-07-31 11:50:00,2,50000,0,0.00,2,2,0,2,50000,50000,0,50000,0,0,0,0,0.00,0.00,0.00,0.00
2013-07-31 12:00:00,2,50000,0,0.00,2,2,0,2,50000,50000,0,50000,0,0,0,0,0.00,0.00,0.00,0.00
2013-07-31 12:10:00,2,50000,0,0.00,2,2,0,2,50000,50000,0,50000,0,0,0,0,0.00,0.00,0.00,0.00
2013-07-31 12:20:00,2,50000,0,0.00,2,2,0,2,50000,50000,0,50000,0,0,0,0,0.00,0.00,0.00,0.00
2013-07-31 12:30:00,2,50000,0,0.00,2,2,0,2,50000,50000,0,50000,0,0,0,0,0.00,0.00,0.00,0.00
2013-07-31 12:40:00,2,50000,0,0.00,2,2,0,2,50000,50000,0,50000,0,0,0,0,0.00,0.00,0.00,0.00
2013-07-31 12:50:00,2,50000,0,0.00,2,2,0,2,50000,50000,0,50000,0,0,0,0,0.00,0.00,0.00,0.00
2013-07-31 13:00:00,2,50000,0,0.00,2,2,0,2,50000,50000,0,50000,0,0,0,0,0.00,0.00,0.00,0.00
2013-07-31 13:10:00,2,50000,0,0.00,2,2,0,2,50000,50000,0,50000,0,0,0,0,0.00,0.00,0.00,0.00
2013-07-31 13:20:00,2,50000,0,0.00,2,2,0,2,50000,50000,0,50000,0,0,0,0,0.00,0.00,0.00,0.00
2013-07-31 13:30:00,2,50000,0,0.00,2,2,0,2,50000,50000,0,50000,0,0,0,0,0.00,0.00,0.00,0.00
2013-07-31 13:40:00,2,50000,0,0.00,2,2,0,2,50000,50000,0,50000,0,0,0,0,0.00,0.00,0.00,0.00
2013-07-31 13:50:00,2,50000,0,0.00,2,2,0,2,50000,50000,0,50000,0,0,0,0,0.00,0.00,0.00,0.00
2013-07-31 14:00:00,2,50000,0,0.00,2,2,0,2,50000,50000,0,50000,0,0,0,0,0.00,0.00,0.00,0.00
2013-07-31 14:10:00,2,50000,0,0.00,2,2,0,2,50000,50000,0,50000,0,0,0,0,0.00,0.00,0.00,0.00
2013-07-31 14:20:00,2,50000,0,0.00,2,2,0,2,50000,50000,0,50000,0,0,0,0,0.00,0.00,0.00,0.00
2013-07-31 14:30:00,2,50000,0,0.00,2,2,0,2,50000,50000,0,50000,0,0,0,0,0.00,0.00,0.00,0.00
2013-07-31 14:40:00,2,50000,0,0.00,2,2,0,2,50000,50000,0,50000,0,0,0,0,0.00,0.00,0.00,0.00
2013-07-31 14:50:00,2,50000,0,0.00,2,2,0,2,50000,50000,0,50000,0,0,0,0,0.00,0.00,0.00,0.00
2013-07-31 15:00:00,2,50000,0,0.00,2,2,0,2,50000,50000,0,50000,0,0,0,0,0.00,0.00,0.00,0.00
2013-07-31 15:10:00,2,50000,0,0.00,2,2,0,2,50000,50000,0,50000,0,0,0,0,0.00,0.00,0.00,0.00
2013-07-31 15:20:00,2,50000,0,0.00,2,2,0,2,50000,50000,0,50000,0,0,0,0,0.00,0.00,0.00,0.00
2013-07-31 15:30:00,2,50000,0,0.00,2,2,0,2,50000,50000,0,50000,0,0,0,0,0.00,0.00,0.00,0.00
2013-07-31 15:40:00,2,50000,0,0.00,2,2,0,2,50000,50000,0,50000,0,0,0,0,0.00,0.00,0.00,0.00
2013-07-31 15:50:00,2,50000,0,0.00,2,2,0,2,49998,50000,1,50000,0,0,0,0,0.00,0.00,0.00,0.00
2013-07-31 16:00:00,2,50000,0,0.00,2,2,0,2,50000,50000,0,50000,0,0,0,0,0.00,0.00,0.00,0.00
2013-07-31 16:10:00,2,50000,0,0.00,2,2,0,2,50000,50000,0,50000,0,0,0,0,0.00,0.00,0.00,0.00
2013-07-31 16:20:00,2,50000,0,0.00,2,2,0,2,50000,50000,0,50000,0,0,0,0,0.00,0.00,0.00,0.00
2013-07-31 16:30:00,2,50000,0,0.00,2,2,0,2,50000,50000,0,50000,0,0,0,0,0.00,0.00,0.00,0.00
2013-07-31 16:40:00,2,49592,0,0.00,2,2,0,2,46390,50000,1076,50000,0,0,0,0,0.00,0.00,0.00,0.00
2013-07-31 16:50:00,2,50000,0,0.00,2,2,0,2,50000,50000,0,50000,0,0,0,0,0.00,0.00,0.00,0.00
2013-07-31 17:00:00,2,50000,0,0.00,2,2,0,2,50000,50000,0,50000,0,0,0,0,0.00,0.00,0.00,0.00
2013-07-31 17:10:00,2,50000,0,0.00,2,2,0,2,50000,50000,0,50000,0,0,0,0,0.00,0.00,0.00,0.00
2013-07-31 17:20:00,2,49981,0,0.00,2,2,0,2,49814,50000,56,50000,0,0,0,0,0.00,0.00,0.00,0.00
2013-07-31 17:30:00,2,50000,0,0.00,2,2,0,2,50000,50000,0,50000,0,0,0,0,0.00,0.00,0.00,0.00
2013-07-31 17:40:00,2,50000,0,0.00,2,2,0,2,50000,50000,0,50000,0,0,0,0,0.00,0.00,0.00,0.00
2013-07-31 17:50:00,2,49014,0,0.00,2,2,0,2,44038,50000,1911,50000,0,0,0,0,0.00,0.00,0.00,0.00
2013-07-31 18:00:00,2,36912,0,0.00,2,2,0,2,19287,50000,12203,38140,0,0,0,0,0.00,0.00,0.00,0.00
2013-07-31 18:10:00,2,49702,0,0.00,2,2,0,2,47018,50000,895,50000,0,0,0,0,0.00,0.00,0.00,0.00
2013-07-31 18:20:00,2,49687,0,0.00,2,2,0,2,47183,50000,840,50000,0,0,0,0,0.00,0.00,0.00,0.00
2013-07-31 18:30:00,2,49926,0,0.00,2,2,0,2,49258,50000,223,50000,0,0,0,0,0.00,0.00,0.00,0.00
2013-07-31 18:40:00,2,50000,0,0.00,2,2,0,2,50000,50000,0,50000,0,0,0,0,0.00,0.00,0.00,0.00
2013-07-31 18:50:00,2,50000,0,0.00,2,2,0,2,50000,50000,0,50000,0,0,0,0,0.00,0.00,0.00,0.00
2013-07-31 19:00:00,2,50000,0,0.00,2,2,0,2,50000,50000,0,50000,0,0,0,0,0.00,0.00,0.00,0.00
2013-07-31 19:10:00,2,50000,0,0.00,2,2,0,2,50000,50000,0,50000,0,0,0,0,0.00,0.00,0.00,0.00
2013-07-31 19:20:00,2,50000,0,0.00,2,2,0,2,50000,50000,0,50000,0,0,0,0,0.00,0.00,0.00,0.00
2013-07-31 19:30:00,2,50000,0,0.00,2,2,0,2,50000,50000,0,50000,0,0,0,0,0.00,0.00,0.00,0.00
2013-07-31 19:40:00,2,50000,0,0.00,2,2,0,2,50000,50000,0,50000,0,0,0,0,0.00,0.00,0.00,0.00
2013-07-31 19:50:00,2,50000,0,0.00,2,2,0,2,50000,50000,0,50000,0,0,0,0,0.00,0.00,0.00,0.00
2013-07-31 20:00:00,2,50000,0,0.00,2,2,0,2,50000,50000,0,50000,0,0,0,0,0.00,0.00,0.00,0.00
2013-07-31 20:10:00,2,50000,0,0.00,2,2,0,2,50000,50000,0,50000,0,0,0,0,0.00,0.00,0.00,0.00
2013-07-31 20:20:00,2,49940,0,0.00,2,2,0,2,49401,50000,180,50000,0,0,0,0,0.00,0.00,0.00,0.00
2013-07-31 20:30:00,2,49914,0,0.00,2,2,0,2,49141,50000,258,50000,0,0,0,0,0.00,0.00,0.00,0.00
2013-07-31 20:40:00,2,50000,0,0.00,2,2,0,2,50000,50000,0,50000,0,0,0,0,0.00,0.00,0.00,0.00
2013-07-31 20:50:00,2,50000,0,0.00,2,2,0,2,50000,50000,0,50000,0,0,0,0,0.00,0.00,0.00,0.00
2013-07-31 21:00:00,2,50000,0,0.00,2,2,0,2,50000,50000,0,50000,0,0,0,0,0.00,0.00,0.00,0.00
2013-07-31 21:10:00,2,49449,0,0.00,2,2,0,2,45434,50000,1367,50000,0,0,0,0,0.00,0.00,0.00,0.00
2013-07-31 21:20:00,2,49676,0,0.00,2,2,0,2,47369,50000,790,50000,0,0,0,0,0.00,0.00,0.00,0.00
2013-07-31 21:30:00,2,49635,0,0.00,2,2,0,2,47152,50000,847,50000,0,0,0,0,0.00,0.00,0.00,0.00
2013-07-31 21:40:00,2,50000,0,0.00,2,2,0,2,50000,50000,0,50000,0,0,0,0,0.00,0.00,0.00,0.00
2013-07-31 21:50:00,2,50000,0,0.00,2,2,0,2,50000,50000,0,50000,0,0,0,0,0.00,0.00,0.00,0.00
2013-07-31 22:00:00,2,49820,0,0.00,2,2,0,2,48757,50000,382,50000,0,0,0,0,0.00,0.00,0.00,0.00
2013-07-31 22:10:00,2,49892,0,0.00,2,2,0,2,49204,50000,244,50000,0,0,0,0,0.00,0.00,0.00,0.00
2013-07-31 22:20:00,2,49670,0,0.00,2,2,0,2,48448,50000,550,50000,0,0,0,0,0.00,0.00,0.00,0.00
2013-07-31 22:30:00,2,49964,0,0.00,2,2,0,2,49636,50000,109,50000,0,0,0,0,0.00,0.00,0.00,0.00
2013-07-31 22:40:00,2,49511,0,0.00,2,2,0,2,47204,50000,894,50000,0,0,0,0,0.00,0.00,0.00,0.00
2013-07-31 22:50:00,2,49774,0,0.00,2,2,0,2,47740,50000,678,50000,0,0,0,0,0.00,0.00,0.00,0.00
2013-07-31 23:00:00,2,48668,0,0.00,2,2,0,2,44010,50000,2239,50000,0,0,0,0,0.00,0.00,0.00,0.00
2013-07-31 23:10:00,2,49877,0,0.00,2,2,0,2,48841,50000,346,50000,0,0,0,0,0.00,0.00,0.00,0.00
2013-07-31 23:20:00,2,48910,0,0.00,2,2,0,2,44962,50000,1696,50000,0,0,0,0,0.00,0.00,0.00,0.00
2013-07-31 23:30:00,2,49432,0,0.00,2,2,0,2,44323,50000,1703,50000,0,0,0,0,0.00,0.00,0.00,0.00
2013-07-31 23:40:00,2,49257,0,0.00,2,2,0,2,46283,50000,1252,50000,0,0,0,0,0.00,0.00,0.00,0.00
2013-07-31 23:50:00,2,49184,0,0.00,2,2,0,2,45769,50000,1407,50000,0,0,0,0,0.00,0.00,0.00,0.00
